EW9596 Weather Reports


Display with metric or nautical units.
time (UTC)temp
F
wind
direction
speed
MPH
gust
MPH
rain 1hr
in
rain 24hr
in
rain mn
in
humidity
%
barometer
mb
20260508002551 53 345 0.0 2.0 0.00 0.00 0.00 50 1010.4
20260508002048 53 344 0.0 0.0 0.00 0.00 0.00 50 1010.4
20260508001549 54 344 0.0 1.0 0.00 0.00 0.00 49 1010.4
20260508001048 54 342 0.0 2.0 0.00 0.00 0.00 49 1010.4
20260508000548 54 342 0.0 3.0 0.00 0.00 0.00 47 1010.4
20260508000047 54 13 1.0 3.0 0.00 0.00 0.00 47 1010.3
20260507235548 55 245 0.0 3.0 0.00 0.00 0.00 47 1010.3
20260507235050 55 243 0.0 4.0 0.00 0.00 0.00 46 1010.2
20260507234550 55 9 1.0 5.0 0.00 0.00 0.00 45 1010.2
20260507234047 55 11 2.0 5.0 0.00 0.00 0.00 45 1010.1
20260507233548 56 338 1.0 4.0 0.00 0.00 0.00 46 1010.1
20260507233046 56 77 1.0 5.0 0.00 0.00 0.00 46 1010.0
20260507232549 56 22 2.0 5.0 0.00 0.00 0.00 46 1010.0
20260507232047 56 301 0.0 6.0 0.00 0.00 0.00 46 1010.0
20260507231545 56 346 0.0 5.0 0.00 0.00 0.00 46 1010.0
20260507231046 56 19 0.0 5.0 0.00 0.00 0.00 45 1010.0
20260507230545 57 298 1.0 6.0 0.00 0.00 0.00 45 1010.1
20260507230045 57 271 2.0 8.0 0.00 0.00 0.00 46 1010.0
20260507225545 57 311 1.0 8.0 0.00 0.00 0.00 46 1010.0
20260507225045 57 350 1.0 8.0 0.00 0.00 0.00 45 1009.9
20260507224545 57 17 2.0 8.0 0.00 0.00 0.00 44 1010.0
20260507224045 57 5 2.0 8.0 0.00 0.00 0.00 46 1009.8
20260507223547 57 38 2.0 11.0 0.00 0.00 0.00 45 1009.8
20260507223044 57 234 4.0 11.0 0.00 0.00 0.00 44 1009.9
20260507222543 57 305 1.0 5.0 0.00 0.00 0.00 45 1009.9
20260507222042 57 255 2.0 5.0 0.00 0.00 0.00 45 1009.8
20260507221543 58 295 0.0 5.0 0.00 0.00 0.00 44 1009.9
20260507221045 58 298 0.0 6.0 0.00 0.00 0.00 43 1009.9
20260507220543 58 305 0.0 8.0 0.00 0.00 0.00 44 1009.9
20260507220042 58 247 1.0 8.0 0.00 0.00 0.00 44 1010.0
20260507215541 58 26 1.0 6.0 0.00 0.00 0.00 45 1009.9
20260507215041 58 28 2.0 6.0 0.00 0.00 0.00 42 1010.0
20260507214541 59 226 1.0 5.0 0.00 0.00 0.00 42 1010.0
20260507214041 59 279 2.0 8.0 0.00 0.00 0.00 44 1010.1
20260507213541 59 324 3.0 8.0 0.00 0.00 0.00 42 1010.1
20260507213041 59 342 1.0 7.0 0.00 0.00 0.00 42 1010.1
20260507212540 59 351 2.0 8.0 0.00 0.00 0.00 44 1010.1
20260507212039 59 302 3.0 9.0 0.00 0.00 0.00 44 1010.0
20260507211539 59 256 2.0 9.0 0.00 0.00 0.00 45 1010.0
20260507211039 59 287 4.0 10.0 0.00 0.00 0.00 42 1010.0
20260507210539 59 290 3.0 10.0 0.00 0.00 0.00 41 1010.0
20260507210039 60 284 1.0 7.0 0.00 0.00 0.00 43 1010.0
20260507205539 59 307 3.0 9.0 0.00 0.00 0.00 42 1010.1
20260507205042 59 60 1.0 9.0 0.00 0.00 0.00 43 1010.1
20260507204539 59 268 2.0 10.0 0.00 0.00 0.00 43 1010.1
20260507204039 58 296 3.0 10.0 0.00 0.00 0.00 46 1010.2
20260507203537 58 311 2.0 12.0 0.00 0.00 0.00 44 1010.1
20260507203037 58 335 4.0 12.0 0.00 0.00 0.00 43 1010.2
20260507202537 58 262 2.0 8.0 0.00 0.00 0.00 43 1010.1
20260507202036 58 323 1.0 8.0 0.00 0.00 0.00 42 1010.1
20260507201539 59 314 2.0 10.0 0.00 0.00 0.00 41 1010.1
20260507201036 59 225 3.0 10.0 0.00 0.00 0.00 41 1010.1
20260507200540 60 297 5.0 10.0 0.00 0.00 0.00 41 1010.2
20260507200038 59 260 3.0 13.0 0.00 0.00 0.00 45 1010.2
20260507195536 59 285 6.0 13.0 0.00 0.01 0.00 45 1010.3
20260507195034 58 52 2.0 5.0 0.00 0.01 0.00 44 1010.3
20260507194543 58 30 0.0 5.0 0.00 0.01 0.00 46 1010.3
20260507194037 58 288 2.0 7.0 0.00 0.01 0.00 46 1010.4
20260507193533 58 290 2.0 6.0 0.00 0.01 0.00 44 1010.5
20260507193033 58 274 1.0 8.0 0.00 0.01 0.00 44 1010.5
20260507192531 58 290 3.0 8.0 0.00 0.01 0.00 42 1010.6
20260507192031 58 350 2.0 10.0 0.00 0.01 0.00 41 1010.6
20260507191534 59 242 1.0 10.0 0.00 0.01 0.00 40 1010.6
20260507191031 59 224 1.0 8.0 0.00 0.01 0.00 41 1010.7
20260507190531 59 326 1.0 8.0 0.00 0.01 0.00 42 1010.6
20260507190131 59 262 2.0 10.0 0.00 0.01 0.00 41 1010.7
20260507185530 59 286 4.0 8.0 0.00 0.01 0.00 45 1010.6
20260507185030 59 360 0.0 10.0 0.00 0.01 0.00 43 1010.7
20260507184532 59 257 5.0 11.0 0.00 0.01 0.00 44 1010.8
20260507184028 58 236 2.0 11.0 0.00 0.01 0.00 41 1010.8
20260507183528 58 297 4.0 10.0 0.00 0.01 0.00 43 1010.8
20260507183036 58 267 5.0 10.0 0.00 0.01 0.00 43 1011.0
20260507182527 59 294 2.0 8.0 0.00 0.01 0.00 42 1011.0
20260507182026 59 246 4.0 10.0 0.00 0.01 0.00 40 1011.1
20260507181526 60 216 5.0 10.0 0.00 0.01 0.00 41 1011.0
20260507181027 60 236 5.0 10.0 0.00 0.01 0.00 44 1011.1
20260507180523 59 250 0.0 10.0 0.00 0.01 0.00 45 1011.2
20260507180022 59 246 5.0 10.0 0.00 0.01 0.00 43 1011.3
20260507175521 58 260 4.0 11.0 0.00 0.01 0.00 45 1011.3
20260507175020 58 217 2.0 10.0 0.00 0.01 0.00 46 1011.4
20260507174522 57 273 3.0 10.0 0.00 0.01 0.00 47 1011.5
20260507174018 57 226 3.0 12.0 0.00 0.01 0.00 48 1011.5
20260507173521 56 294 5.0 12.0 0.00 0.01 0.00 45 1011.6
20260507173018 57 246 0.0 8.0 0.00 0.01 0.00 45 1011.5
20260507172517 57 355 3.0 8.0 0.00 0.01 0.00 44 1011.6
20260507172016 57 288 3.0 8.0 0.00 0.01 0.00 45 1011.7
20260507171526 57 343 4.0 8.0 0.00 0.01 0.00 49 1011.6
20260507171015 56 298 2.0 6.0 0.00 0.01 0.00 49 1011.8
20260507170516 56 256 1.0 10.0 0.00 0.01 0.00 47 1011.7
20260507170015 55 286 3.0 10.0 0.00 0.01 0.00 46 1011.8
20260507165515 56 319 1.0 5.0 0.00 0.01 0.00 46 1011.9
20260507165115 56 15 1.0 8.0 0.00 0.01 0.00 45 1011.9
20260507164515 57 234 3.0 8.0 0.00 0.01 0.00 45 1011.9
20260507164014 57 336 1.0 8.0 0.00 0.01 0.00 44 1011.9
20260507163513 57 225 3.0 9.0 0.00 0.01 0.00 47 1011.8
20260507163011 57 225 1.0 9.0 0.00 0.01 0.00 49 1011.9
20260507162512 56 248 1.0 8.0 0.00 0.01 0.00 52 1012.1
20260507162012 55 306 3.0 8.0 0.00 0.01 0.00 48 1012.2
20260507161513 55 198 4.0 8.0 0.00 0.01 0.00 47 1012.3
20260507161011 55 207 3.0 8.0 0.00 0.01 0.00 50 1012.4
20260507160514 54 178 2.0 6.0 0.00 0.01 0.00 50 1012.3
20260507160025 54 47 2.0 6.0 0.00 0.01 0.00 48 1012.3
20260507155515 54 254 3.0 8.0 0.00 0.02 0.00 48 1012.4
20260507155011 55 259 4.0 10.0 0.00 0.02 0.00 47 1012.5
20260507154511 55 250 3.0 10.0 0.00 0.02 0.00 47 1012.4
20260507154011 55 220 3.0 9.0 0.00 0.02 0.00 47 1012.5
20260507153610 56 208 5.0 9.0 0.00 0.02 0.00 47 1012.5
20260507153010 56 323 2.0 11.0 0.00 0.02 0.00 49 1012.7
20260507152510 56 224 4.0 10.0 0.00 0.02 0.00 47 1012.7
20260507152010 56 286 2.0 9.0 0.00 0.02 0.00 49 1012.7
20260507151509 56 240 5.0 9.0 0.00 0.02 0.00 45 1012.7
20260507151008 56 235 3.0 9.0 0.00 0.02 0.00 47 1012.8
20260507150510 56 235 3.0 9.0 0.00 0.02 0.00 49 1013.0
20260507150009 55 240 3.0 9.0 0.00 0.02 0.00 53 1012.9
20260507145505 55 240 4.0 9.0 0.00 0.04 0.00 48 1013.0
20260507145004 55 213 3.0 9.0 0.00 0.04 0.00 50 1013.1
20260507144503 55 286 2.0 6.0 0.00 0.04 0.00 50 1013.2
20260507144002 54 338 1.0 9.0 0.00 0.04 0.00 53 1013.1
20260507143559 54 247 1.0 11.0 0.00 0.04 0.00 52 1013.2
20260507143111 54 304 5.0 11.0 0.00 0.04 0.00 50 1013.3
20260507142600 54 37 3.0 10.0 0.00 0.04 0.00 50 1013.2
20260507142057 54 277 4.0 11.0 0.00 0.04 0.00 50 1013.3
20260507141618 54 231 5.0 11.0 0.00 0.04 0.00 52 1013.3
20260507141057 53 213 3.0 7.0 0.00 0.04 0.00 55 1013.3
20260507140557 53 209 3.0 6.0 0.00 0.04 0.00 56 1013.3
20260507140054 52 267 1.0 10.0 0.00 0.04 0.00 55 1013.3
20260507135552 52 219 5.0 10.0 0.00 0.08 0.00 56 1013.4
20260507135051 52 242 0.0 9.0 0.00 0.08 0.00 56 1013.5
20260507134551 51 228 3.0 8.0 0.00 0.08 0.00 56 1013.5
20260507134050 51 347 2.0 5.0 0.00 0.08 0.00 58 1013.5
20260507133550 51 269 2.0 9.0 0.00 0.08 0.00 59 1013.5
20260507133048 51 265 4.0 9.0 0.00 0.08 0.00 61 1013.6
20260507132547 50 297 2.0 9.0 0.00 0.08 0.00 61 1013.5
20260507132047 50 321 3.0 9.0 0.00 0.08 0.00 62 1013.5
20260507131557 50 269 3.0 6.0 0.00 0.08 0.00 65 1013.6
20260507131044 50 207 0.0 4.0 0.00 0.08 0.00 67 1013.5
20260507130542 49 219 2.0 4.0 0.00 0.08 0.00 71 1013.5
20260507130044 49 244 0.0 4.0 0.00 0.08 0.00 71 1013.5
20260507125540 48 233 1.0 4.0 0.00 0.17 0.00 74 1013.5
20260507125045 48 223 0.0 6.0 0.00 0.17 0.00 76 1013.6
20260507124538 47 215 1.0 5.0 0.00 0.17 0.00 78 1013.5
20260507124036 47 181 0.0 3.0 0.00 0.17 0.00 80 1013.6
20260507123534 47 242 1.0 4.0 0.00 0.17 0.00 81 1013.7
20260507123034 46 145 0.0 4.0 0.00 0.17 0.00 83 1013.8
20260507122533 45 210 0.0 4.0 0.00 0.17 0.00 84 1013.8
20260507122033 45 220 1.0 4.0 0.00 0.17 0.00 85 1013.7
20260507121535 44 228 2.0 4.0 0.00 0.17 0.00 85 1013.8
20260507121033 44 249 2.0 4.0 0.00 0.17 0.00 86 1013.7
20260507120532 43 225 0.0 2.0 0.00 0.17 0.00 86 1013.7
20260507120033 43 226 0.0 4.0 0.00 0.17 0.00 87 1013.7
20260507115532 42 251 2.0 4.0 0.00 0.17 0.00 87 1013.7
20260507115033 42 214 0.0 0.0 0.00 0.17 0.00 87 1013.7
20260507114532 41 214 0.0 3.0 0.00 0.17 0.00 87 1013.6
20260507114033 41 214 0.0 3.0 0.00 0.17 0.00 87 1013.6
20260507113531 40 202 0.0 3.0 0.00 0.17 0.00 86 1013.6
20260507113031 40 263 0.0 0.0 0.00 0.17 0.00 86 1013.6
20260507112530 39 346 0.0 0.0 0.00 0.17 0.00 86 1013.4
20260507112030 39 348 0.0 0.0 0.00 0.17 0.00 86 1013.3
20260507111530 39 348 0.0 0.0 0.00 0.17 0.00 85 1013.3
20260507111030 38 348 0.0 0.0 0.00 0.17 0.00 84 1013.4
20260507110530 38 348 0.0 0.0 0.00 0.17 0.00 84 1013.5
20260507110030 38 348 0.0 0.0 0.00 0.17 0.00 84 1013.4
20260507105529 38 348 0.0 0.0 0.00 0.17 0.00 83 1013.4
20260507105029 38 348 0.0 0.0 0.00 0.17 0.00 83 1013.4
20260507104528 38 348 0.0 0.0 0.00 0.17 0.00 83 1013.3
20260507104027 38 348 0.0 0.0 0.00 0.17 0.00 83 1013.3
20260507103526 38 348 0.0 0.0 0.00 0.17 0.00 83 1013.2
20260507103025 38 348 0.0 0.0 0.00 0.17 0.00 83 1013.2
20260507102525 38 348 0.0 0.0 0.00 0.17 0.00 83 1013.0
20260507102025 38 348 0.0 1.0 0.00 0.17 0.00 82 1013.1
20260507101525 38 348 0.0 1.0 0.00 0.17 0.00 82 1013.0
20260507101025 39 348 0.0 0.0 0.00 0.17 0.00 81 1012.9
20260507100523 39 348 0.0 0.0 0.00 0.17 0.00 81 1012.9
20260507100029 39 242 0.0 0.0 0.00 0.17 0.00 81 1012.9
20260507095524 39 242 0.0 0.0 0.00 0.17 0.00 81 1013.0
20260507095021 39 242 0.0 0.0 0.00 0.17 0.00 81 1012.8
20260507094520 40 242 0.0 0.0 0.00 0.17 0.00 81 1013.0
20260507094021 40 242 0.0 0.0 0.00 0.17 0.00 81 1012.9
20260507093518 40 242 0.0 0.0 0.00 0.17 0.00 81 1012.9
20260507093017 40 242 0.0 0.0 0.00 0.17 0.00 81 1012.9
20260507092517 41 242 0.0 0.0 0.00 0.17 0.00 81 1013.0
20260507092021 41 242 0.0 0.0 0.00 0.17 0.00 81 1012.9
20260507091519 41 242 0.0 0.0 0.00 0.17 0.00 81 1013.0
20260507091014 41 242 0.0 0.0 0.00 0.17 0.00 81 1013.0
20260507090514 41 242 0.0 0.0 0.00 0.17 0.00 81 1013.0
20260507090012 42 242 0.0 0.0 0.00 0.17 0.00 81 1013.0
20260507085512 42 242 0.0 0.0 0.00 0.17 0.00 81 1013.0
20260507085011 42 242 0.0 0.0 0.00 0.17 0.00 81 1012.9
20260507084509 42 242 0.0 0.0 0.00 0.17 0.00 81 1013.0
20260507084013 43 242 0.0 0.0 0.00 0.17 0.00 81 1012.9
20260507083508 43 242 0.0 0.0 0.00 0.17 0.00 81 1013.0
20260507083008 43 242 0.0 0.0 0.00 0.17 0.00 81 1013.0
20260507082507 43 242 0.0 0.0 0.00 0.17 0.00 81 1013.0
20260507082006 43 242 0.0 0.0 0.00 0.17 0.00 81 1012.9
20260507081506 43 242 0.0 0.0 0.00 0.17 0.00 81 1013.0
20260507081006 44 242 0.0 0.0 0.00 0.17 0.00 82 1013.0
20260507080508 44 242 0.0 0.0 0.00 0.17 0.00 81 1013.0
20260507080005 44 250 0.0 0.0 0.00 0.17 0.00 81 1013.0
20260507075505 44 250 0.0 0.0 0.00 0.17 0.00 81 1012.9
20260507075005 44 250 0.0 0.0 0.00 0.17 0.00 82 1013.0
20260507074504 44 250 0.0 0.0 0.00 0.17 0.00 82 1012.9
20260507074006 44 250 0.0 1.0 0.00 0.17 0.00 82 1012.9
20260507073503 44 250 0.0 2.0 0.00 0.17 0.00 82 1012.9
20260507073006 44 250 0.0 3.0 0.00 0.17 0.00 82 1012.8
20260507072503 44 250 0.0 4.0 0.00 0.17 0.00 82 1012.8
20260507072002 44 246 0.0 5.0 0.00 0.17 0.00 82 1012.9
20260507071502 44 268 2.0 6.0 0.00 0.17 0.00 82 1013.0
20260507071003 44 297 0.0 7.0 0.00 0.17 0.00 83 1013.0
20260507070502 44 277 3.0 7.0 0.00 0.17 0.00 83 1013.1
20260507070000 44 251 0.0 3.0 0.00 0.17 0.00 83 1013.1
20260507065603 44 320 0.0 5.0 0.00 0.17 0.00 83 1013.0
20260507065059 44 321 2.0 7.0 0.00 0.17 0.00 83 1012.9
20260507064638 44 218 1.0 9.0 0.00 0.17 0.00 84 1012.9
20260507064103 44 234 3.0 9.0 0.00 0.17 0.00 84 1012.8
20260507063558 45 257 0.0 5.0 0.00 0.17 0.00 85 1012.8
20260507063115 45 281 3.0 5.0 0.00 0.17 0.00 85 1012.8
20260507062555 45 355 1.0 5.0 0.00 0.17 0.00 86 1012.7
20260507062055 45 270 0.0 7.0 0.00 0.17 0.00 86 1012.6
20260507061555 45 240 3.0 9.0 0.00 0.17 0.00 87 1012.6
20260507061053 45 246 4.0 16.0 0.00 0.17 0.00 87 1012.6
20260507060552 45 267 5.0 11.0 0.00 0.17 0.00 88 1012.5
20260507060111 46 297 2.0 7.0 0.00 0.17 0.00 88 1012.4
20260507055552 46 30 2.0 10.0 0.00 0.17 0.00 89 1012.4
20260507055051 46 278 4.0 10.0 0.00 0.17 0.00 89 1012.3
20260507054557 46 267 0.0 11.0 0.00 0.17 0.00 89 1012.3
20260507054050 46 346 5.0 13.0 0.00 0.17 0.00 89 1012.3
20260507053549 46 294 5.0 13.0 0.00 0.17 0.00 89 1012.2
20260507053047 46 201 3.0 7.0 0.00 0.17 0.00 89 1012.1
20260507052547 46 290 0.0 7.0 0.00 0.17 0.00 89 1012.1
20260507052046 46 236 0.0 0.0 0.00 0.17 0.00 89 1012.3
20260507051601 46 237 0.0 0.0 0.00 0.17 0.00 89 1012.2
20260507051045 46 237 0.0 0.0 0.00 0.17 0.00 89 1012.1
20260507050545 46 229 0.0 3.0 0.00 0.17 0.00 89 1012.1
20260507050049 46 229 0.0 4.0 0.00 0.17 0.00 89 1012.1
20260507045545 46 231 0.0 4.0 0.00 0.17 0.00 89 1012.0
20260507045045 46 240 1.0 5.0 0.00 0.17 0.00 89 1012.0
20260507044644 46 214 0.0 5.0 0.00 0.17 0.00 89 1012.1
20260507044046 46 128 1.0 5.0 0.00 0.17 0.00 89 1012.2
20260507043543 46 243 1.0 4.0 0.00 0.17 0.00 89 1012.1
20260507043043 46 223 1.0 4.0 0.00 0.17 0.00 88 1012.1
20260507042541 46 211 0.0 0.0 0.00 0.17 0.00 88 1012.1
20260507042040 46 215 0.0 0.0 0.00 0.17 0.00 88 1012.1
20260507041539 46 215 0.0 0.0 0.00 0.17 0.00 88 1011.8
20260507041039 46 215 0.0 0.0 0.00 0.17 0.00 88 1011.9
20260507040539 46 215 0.0 0.0 0.00 0.17 0.00 88 1011.9
20260507040038 46 215 0.0 0.0 0.00 0.17 0.00 88 1011.8
20260507035537 46 215 0.0 0.0 0.00 0.17 0.17 88 1011.9
20260507035038 46 215 0.0 0.0 0.00 0.17 0.17 88 1012.1
20260507034538 46 215 0.0 0.0 0.00 0.17 0.17 88 1011.9
20260507034037 46 215 0.0 0.0 0.00 0.17 0.17 88 1011.7
20260507033537 46 215 0.0 0.0 0.00 0.17 0.17 88 1011.9
20260507033036 46 215 0.0 0.0 0.00 0.17 0.17 88 1011.6
20260507032536 46 215 0.0 0.0 0.00 0.17 0.17 88 1011.4
20260507032039 46 215 0.0 0.0 0.00 0.17 0.17 88 1011.7
20260507031536 46 215 0.0 0.0 0.00 0.17 0.17 88 1011.9
20260507031036 46 215 0.0 0.0 0.00 0.17 0.17 88 1011.8
20260507030535 46 215 0.0 0.0 0.00 0.17 0.17 88 1012.0
20260507030037 46 215 0.0 0.0 0.00 0.17 0.17 88 1011.8
20260507025537 46 215 0.0 0.0 0.00 0.17 0.17 88 1011.7
20260507025039 46 215 0.0 0.0 0.00 0.17 0.17 88 1012.2
20260507024535 46 215 0.0 0.0 0.00 0.17 0.17 88 1012.3
20260507024033 46 215 0.0 0.0 0.00 0.17 0.17 88 1012.3
20260507023533 46 215 0.0 0.0 0.00 0.17 0.17 88 1012.1
20260507023033 46 215 0.0 0.0 0.00 0.17 0.17 88 1012.1
20260507022533 46 215 0.0 0.0 0.00 0.17 0.17 88 1011.9
20260507022033 46 215 0.0 0.0 0.00 0.17 0.17 88 1011.8
20260507021536 46 215 0.0 0.0 0.00 0.17 0.17 88 1012.5
20260507021032 46 215 0.0 0.0 0.00 0.17 0.17 88 1012.5
20260507020531 46 215 0.0 0.0 0.00 0.17 0.17 88 1012.2
20260507020035 46 215 0.0 0.0 0.00 0.17 0.17 88 1012.5
20260507015531 46 215 0.0 0.0 0.00 0.17 0.17 88 1012.2
20260507015034 46 215 0.0 0.0 0.00 0.17 0.17 88 1012.4
20260507014531 46 215 0.0 0.0 0.00 0.17 0.17 88 1012.5
20260507014031 46 215 0.0 0.0 0.00 0.17 0.17 88 1012.3
20260507013529 46 215 0.0 0.0 0.00 0.17 0.17 88 1012.2
20260507013029 46 215 0.0 0.0 0.00 0.17 0.17 88 1012.2
20260507012532 46 215 0.0 0.0 0.00 0.17 0.17 88 1012.2
20260507012029 46 215 0.0 0.0 0.00 0.17 0.17 88 1012.4
20260507011533 47 215 0.0 0.0 0.00 0.17 0.17 88 1012.2
20260507011027 47 215 0.0 0.0 0.00 0.17 0.17 88 1012.2
20260507010527 47 215 0.0 0.0 0.00 0.17 0.17 87 1012.2
20260507010034 47 215 0.0 0.0 0.00 0.17 0.17 87 1012.1
20260507005528 47 215 0.0 0.0 0.00 0.17 0.17 87 1012.0
20260507005025 47 215 0.0 0.0 0.00 0.17 0.17 87 1012.0
20260507004526 47 215 0.0 0.0 0.00 0.17 0.17 87 1011.9
20260507004025 47 215 0.0 0.0 0.00 0.17 0.17 87 1012.0
20260507003524 47 215 0.0 0.0 0.00 0.17 0.17 87 1011.8
20260507003023 47 218 0.0 0.0 0.00 0.17 0.17 87 1011.7